Location: Gu�tanj
(46.5431°N, 14.9692°E)
Time: 20:44:54
(UTC+00:00)

ASTEX 1 - Pass Details

Date: 03 March 2021
Orbit: 721 x 743 km, 92.7° (Epoch: 20 April)

Event Time Altitude Azimuth Distance (km) Brightness Sun altitude
Rises 19:20:14 0° 2° (N) 3,151 6.9 -26.4°
Reaches altitude 10° 19:22:33 10° 358° (N) 2,223 6.1 -26.8°
Maximum altitude 19:27:21 58° 281° (W) 844 3.9 -27.6°
Enters shadow 19:30:10 24° 210° (SSW) 1,468 5.0 -28.0°
